W9RPM Weather Reports


Display with metric or nautical units.
time (UTC)temp
F
wind
direction
speed
MPH
gust
MPH
rain 1hr
in
rain 24hr
in
rain mn
in
humidity
%
barometer
mb
20260503081515 55 195 3.0 9.0 0.00 0.00 0.00 51 1010.5
20260503071512 55 212 4.0 9.0 0.00 0.00 0.00 48 1011.1
20260503054522 54 145 3.0 6.0 0.00 0.00 0.00 52 1011.8
20260503053053 54 142 3.0 8.0 0.00 0.00 0.00 51 1011.8
20260503051535 54 138 2.0 10.0 0.00 0.00 0.00 51 1012.0
20260503050019 54 142 3.0 8.0 0.00 0.00 0.00 51 1012.0
20260503044602 55 123 3.0 10.0 0.00 0.00 0.00 51 1012.0
20260503043030 55 136 2.0 7.0 0.00 0.00 0.00 52 1012.2
20260503041511 55 117 1.0 7.0 0.00 0.00 0.00 53 1012.2
20260503040052 55 149 3.0 9.0 0.00 0.00 0.00 53 1012.5
20260503034538 55 136 2.0 9.0 0.00 0.00 0.00 55 1012.6
20260503033013 55 146 4.0 8.0 0.00 0.00 0.00 58 1012.8
20260503031555 56 153 3.0 7.0 0.00 0.00 0.00 63 1013.0
20260503030035 56 155 2.0 5.0 0.00 0.00 0.00 60 1013.1
20260503024512 56 155 2.0 4.0 0.00 0.00 0.00 54 1013.1
20260503023055 57 150 1.0 4.0 0.00 0.00 0.00 56 1013.1
20260503021540 57 192 0.0 5.0 0.00 0.00 0.00 54 1013.2
20260503020025 57 186 1.0 4.0 0.00 0.00 0.00 47 1013.2
20260503014504 58 203 1.0 4.0 0.00 0.00 0.00 46 1013.2
20260503013043 59 170 1.0 5.0 0.00 0.00 0.00 45 1013.2
20260503011532 59 173 0.0 2.0 0.00 0.00 0.00 44 1013.3
20260503010010 60 198 0.0 3.0 0.00 0.00 0.00 42 1013.3
20260503004550 61 226 1.0 5.0 0.00 0.00 0.00 39 1013.3
20260503003033 61 230 2.0 8.0 0.00 0.00 0.00 37 1013.4
20260503001517 62 212 1.0 7.0 0.00 0.00 0.00 37 1013.5
20260503000053 62 263 1.0 9.0 0.00 0.00 0.00 36 1013.6